Station 45206 - Euclid Beach Buoy Image indicating link to RSS feed of recent meteorological observations for station 45206


Conditions at 45206 as of
(12:00 am EDT)
0400 GMT on 07/14/2024:
     

Click on the graph icon in the table below to see a time series plot of the last five days of that observation.

5-day plot - Wind Speed Wind Speed (WSPD): 0.0 kts
5-day plot - Wind Gust Wind Gust (GST): 1.9 kts
5-day plot - Wave Height Wave Height (WVHT): 0.3 ft
5-day plot - Mean Wave Direction Mean Wave Direction (MWD): W ( 261 deg true )
5-day plot - Water Temperature Water Temperature (WTMP): 73.8 °F
5-day plot - Wind Speed at 10 Meters Wind Speed at 10 meters (WSPD10M): 0.0 kts
5-day plot - Wind Speed at 20 Meters Wind Speed at 20 meters (WSPD20M): 0.0 kts
5-day plot -  Wind Speed, Wind Gust and Atmospheric Pressure Combined plot of Wind Speed, Gust, and Air Pressure
Previous observations
TIME
(EDT)
5-day plot - Wind Direction
WDIR
 
5-day plot - Wind Speed
WSPD
kts
5-day plot - Wind Gust
GST
kts
5-day plot - Wave Height
WVHT
ft
5-day plot - Dominant Wave Period
DPD
sec
5-day plot - Average Wave Period
APD
sec
5-day plot - Mean Wave Direction
MWD
 
5-day plot - Atmospheric Pressure
PRES
in
5-day plot - Pressure Tendency
PTDY
in
5-day plot - Air Temperature
ATMP
°F
5-day plot - Water Temperature
WTMP
°F
5-day plot - Dew Point
DEWP
°F
5-day plot - Salinity
SAL
psu
5-day plot - Visibility
VIS
nmi
5-day plot - Tide (above MLLW)
TIDE
ft
2024-07-13 11:50 pm- 0.0 1.9 0.3-- N--- 73.8----
2024-07-13 11:40 pm NW 1.9 1.9 0.3-- NW--- 73.8----
2024-07-13 11:30 pm SW 1.9 1.9 0.3-- NW--- 73.8----
2024-07-13 11:20 pmSSW 1.9 1.9 0.3-- N--- 73.8----
2024-07-13 11:10 pm S 1.9 3.9 0.3-- N--- 73.8----
2024-07-13 10:50 pm S 1.9 3.9 0.3-- NW--- 73.9----
2024-07-13 10:40 pm S 1.9 3.9 0.3-- N--- 73.9----
2024-07-13 10:30 pm S 1.9 1.9 0.3--NNW--- 73.9----
2024-07-13 10:20 pm S 1.9 3.9 0.3-- N--- 73.9----
2024-07-13 10:10 pmSSW 1.9 3.9 0.3-- N--- 73.9----
2024-07-13 09:50 pm SW 1.9 3.9 0.3-- N--- 74.1----
2024-07-13 09:40 pm SW 1.9 3.9 0.3-- N--- 74.1----
2024-07-13 09:30 pm- 0.0 1.9 0.3--NNE--- 74.1----
2024-07-13 09:20 pm- 0.0 1.9 0.3--NNE--- 74.1----
2024-07-13 09:10 pmESE 1.9 3.9 0.3--NNE--- 74.1----
2024-07-13 09:00 pm NE 1.9 3.9 0.7--NNE--- 74.1----
2024-07-13 08:50 pm NE 1.9 3.9 0.7--ENE--- 74.1----
2024-07-13 08:40 pmNNE 1.9 3.9 0.7--NNE--- 74.1----
2024-07-13 08:30 pm NE 1.9 3.9 0.7-- NE--- 74.3----
2024-07-13 08:20 pm NE 1.9 3.9 0.7-- NE--- 74.3----
2024-07-13 08:10 pmENE 1.9 3.9 0.7--NNE--- 74.1----
2024-07-13 08:00 pmENE 1.9 3.9 0.7--NNE--- 74.1----
2024-07-13 07:50 pm E 1.9 3.9 0.7-- NE--- 74.3----
2024-07-13 07:40 pm E 3.9 5.8 0.7-- NE--- 74.3----
2024-07-13 07:30 pmENE 3.9 5.8 0.7-- NE--- 74.3----
2024-07-13 07:20 pmENE 5.8 5.8 0.7-- NE--- 74.3----
2024-07-13 07:10 pmENE 5.8 7.8 1.0 2- NE--- 74.5----
2024-07-13 07:00 pmENE 5.8 7.8 1.0 3- NE--- 74.5----
2024-07-13 06:50 pmENE 5.8 7.8 1.0 3- NE--- 74.5----
2024-07-13 06:40 pmENE 7.8 9.7 1.0 3- NE--- 74.5----
2024-07-13 06:30 pmENE 5.8 9.7 1.0 3- NE--- 74.7----
2024-07-13 06:20 pmENE 7.8 11.7 1.0 3- NE--- 74.7----
2024-07-13 06:10 pmENE 7.8 9.7 1.0 3- NE--- 74.5----
2024-07-13 05:50 pmENE 7.8 11.7 1.0 3- NE--- 74.8----
2024-07-13 05:40 pmENE 7.8 11.7 1.0 3- NE--- 75.0----
2024-07-13 05:30 pmENE 7.8 11.7 1.3 3- NE--- 74.8----
2024-07-13 05:20 pmENE 7.8 11.7 1.0 3- NE--- 75.0----
2024-07-13 05:10 pmENE 7.8 11.7 1.3 3-NNE--- 75.2----
2024-07-13 04:50 pmENE 9.7 11.7 1.3 2- E--- 75.4----
2024-07-13 04:40 pm NE 9.7 11.7 1.0 3- NE--- 75.2----
2024-07-13 04:30 pm NE 9.7 11.7 1.3 3- NE--- 75.2----
2024-07-13 04:20 pm NE 9.7 11.7 1.3 3- NE--- 75.4----
2024-07-13 04:10 pm NE 9.7 11.7 1.0 3- NE--- 75.4----
2024-07-13 03:50 pmENE 9.7 11.7 1.3 3- NE--- 75.2----
2024-07-13 03:40 pmENE 9.7 11.7 1.3 3- NE--- 75.4----
2024-07-13 03:30 pmENE 9.7 11.7 1.3 3- NE--- 75.4----
2024-07-13 03:20 pmENE 9.7 13.6 1.3 3- NE--- 75.6----
2024-07-13 03:10 pmENE 9.7 11.7 1.3 3- NE--- 75.4----
2024-07-13 02:50 pmENE 9.7 11.7 1.3 3- NE--- 75.4----
2024-07-13 02:40 pmENE 9.7 11.7 1.3 3- NE--- 75.2----
2024-07-13 02:30 pmENE 9.7 11.7 1.3 3- NE--- 75.4----
2024-07-13 02:20 pm NE 9.7 11.7 1.3 3- NE--- 75.2----
2024-07-13 02:10 pmENE 9.7 13.6 1.3 3- NE--- 75.4----
2024-07-13 02:00 pmENE 9.7 13.6 1.0 2- NE--- 75.4----
2024-07-13 01:50 pmENE 9.7 13.6 1.0 2- NE--- 75.2----
2024-07-13 01:40 pm NE 9.7 13.6 1.0 2- NE--- 75.4----
2024-07-13 01:30 pm NE 9.7 13.6 1.0 2- NE--- 75.4----
2024-07-13 01:20 pm NE 7.8 11.7 1.0 2- NE--- 75.6----
2024-07-13 01:10 pm NE 7.8 11.7 0.7-- NE--- 75.2----
2024-07-13 01:00 pm NE 7.8 9.7 0.7-- NE--- 75.7----
2024-07-13 12:50 pm NE 7.8 9.7 0.7-- NE--- 75.6----
2024-07-13 12:40 pm NE 5.8 9.7 0.7-- NE--- 75.2----
2024-07-13 12:30 pm NE 5.8 7.8 0.3-- NE--- 75.2----
2024-07-13 12:20 pm NE 5.8 5.8 0.3--NNE--- 75.2----
2024-07-13 12:10 pm NE 5.8 5.8 0.3-- S--- 75.2----
2024-07-13 11:50 am NE 3.9 5.8 0.3--WNW--- 75.2----
2024-07-13 11:40 am NE 3.9 5.8 0.3-- NW--- 75.2----
2024-07-13 11:30 am NE 3.9 5.8 0.3--NNW--- 75.0----
2024-07-13 11:20 am NE 3.9 3.9 0.3--NNE--- 74.8----
2024-07-13 11:10 am NE 1.9 3.9 0.3-- N--- 74.7----
2024-07-13 11:00 amNNE 3.9 3.9 0.3--NNE--- 74.7----
2024-07-13 10:50 am NE 3.9 5.8 0.3-- NE--- 74.5----
2024-07-13 10:40 am NE 3.9 3.9 0.3-- SE--------
2024-07-13 10:30 am NE 3.9 3.9 0.3-- N--- 74.3----
2024-07-13 10:20 am NE 1.9 3.9 0.3-- W--- 74.5----
2024-07-13 10:10 amNNE 3.9 3.9 0.3-- NW--- 73.9----
2024-07-13 10:00 am N 1.9 3.9 0.3--NNE--- 74.1----
2024-07-13 09:50 am N 1.9 1.9 0.3-- NW--- 74.1----
2024-07-13 09:40 am N 1.9 1.9 0.3--NNE--- 73.9----
2024-07-13 09:30 am- 0.0 1.9 0.3--NNE--- 73.9----
2024-07-13 09:20 am E 1.9 1.9 0.3--NNW--- 73.8----
2024-07-13 09:10 amENE 1.9 1.9 0.3--NNW--- 73.8----
2024-07-13 08:50 amENE 1.9 1.9 0.3--ENE--- 73.6----
2024-07-13 08:40 am E 1.9 1.9 0.3--NNE--- 73.6----
2024-07-13 08:30 amENE 1.9 3.9 0.3-- NE--- 73.6----
2024-07-13 08:20 amENE 1.9 3.9 0.3--NNE--- 73.6----
2024-07-13 08:00 amENE 1.9 1.9 0.3--WSW--- 73.4----
2024-07-13 07:50 am- 0.0 1.9 0.3-- SW--- 73.4----
2024-07-13 07:40 amSSE 1.9 3.9 0.3-- N--- 73.4----
2024-07-13 07:30 am E 1.9 3.9 0.3--WNW--- 73.4----
2024-07-13 07:20 amENE 1.9 3.9 0.3--NNE--- 73.4----
2024-07-13 07:10 am NE 1.9 3.9 0.3-- NW--- 73.6----
2024-07-13 07:00 am NE 1.9 1.9 0.3-- SW--- 73.6----
2024-07-13 06:50 amNNE 1.9 3.9 0.3-- W--- 73.6----
2024-07-13 06:40 amNNE 1.9 3.9 0.3--NNE--- 73.6----
2024-07-13 06:30 amENE 1.9 1.9 0.3-- NE--- 73.6----
2024-07-13 06:20 am E 1.9 3.9 0.3--NNE--- 73.6----
2024-07-13 06:10 amESE 1.9 3.9 0.3-- W--- 73.6----
2024-07-13 06:00 am NE 1.9 1.9 0.3-- N--- 73.6----
2024-07-13 05:50 am NE 1.9 1.9 0.3-- W--- 73.8----
2024-07-13 05:40 amNNE 1.9 3.9 0.0-- N--- 73.8----
2024-07-13 05:30 amENE 1.9 1.9 0.3-- W--- 73.8----
2024-07-13 05:20 am- 0.0 0.0 0.3--WSW--- 73.9----
2024-07-13 05:10 am- 0.0 1.9 0.0-- N--- 73.9----
2024-07-13 05:00 amSSE 1.9 1.9 0.0-- W--- 73.9----
2024-07-13 04:50 amSSE 1.9 1.9 0.3-- N--- 73.9----
2024-07-13 04:40 amSSE 1.9 1.9 0.0-- N--- 73.9----
2024-07-13 04:30 amSSE 1.9 1.9 0.0--WNW--- 74.1----
2024-07-13 04:20 amESE 1.9 1.9 0.0-- N--- 74.1----
2024-07-13 04:10 am E 1.9 1.9 0.3-- N--- 74.1----
2024-07-13 04:00 am E 1.9 1.9 0.3--NNE--- 74.1----
2024-07-13 03:50 am E 1.9 1.9 0.3-- NW--- 73.9----
2024-07-13 03:40 amENE 1.9 1.9 0.3-- W--- 73.9----
2024-07-13 03:30 am E 1.9 1.9 0.3-- W--- 73.9----
2024-07-13 03:20 am NE 1.9 1.9 0.3--NNE--- 73.9----
2024-07-13 03:10 am NE 1.9 1.9 0.3-- W--- 74.1----
2024-07-13 03:00 am- 0.0 1.9 0.3--NNE--- 74.1----
2024-07-13 02:50 am- 0.0 1.9 0.3--NNE--- 74.1----
2024-07-13 02:40 am SE 1.9 1.9 0.3--NNE--- 74.1----
2024-07-13 02:30 am E 1.9 1.9 0.3-- N--- 74.1----
2024-07-13 02:20 amESE 1.9 3.9 0.3-- N--- 74.1----
2024-07-13 02:10 am SE 1.9 3.9 0.3--NNE--- 74.1----
2024-07-13 02:00 am NE 1.9 1.9 0.3-- N--- 74.1----
2024-07-13 01:50 amNNE 1.9 1.9 0.3-- N--- 74.1----
2024-07-13 01:40 amNNW 1.9 1.9 0.3--NNE--- 74.1----
2024-07-13 01:30 am- 0.0 1.9 0.3-- N--- 74.3----
2024-07-13 01:20 am- 0.0 1.9 0.3--NNE--- 74.3----
2024-07-13 01:10 am- 0.0 1.9 0.3--NNE--- 74.3----
2024-07-13 01:00 am- 0.0 1.9 0.3-- N--- 74.3----
2024-07-13 12:50 amSSE 1.9 3.9 0.3-- N--- 74.3----
2024-07-13 12:40 am SE 1.9 3.9 0.3--NNE--- 74.3----
2024-07-13 12:30 am SE 1.9 3.9 0.3--NNE--- 74.3----
2024-07-13 12:20 am- 0.0 1.9 0.3--NNE--- 74.5----
2024-07-13 12:10 amESE 1.9 3.9 0.3-- N--- 74.5----
2024-07-13 12:00 amESE 1.9 3.9 0.3--NNE--- 74.5----
2024-07-12 11:50 pm E 1.9 3.9 0.3--NNE--- 74.5----

Detailed Wave Summary
for 45206 as of (12:00 am EDT)
0400 GMT on 07/14/2024:

These wave data are displayed in rounded times.

     

Click on the graph icon in the table below to see a time series plot of the last five days of that observation.

5-day plot - Significant Wave Height Significant Wave Height (WVHT): 0.3 ft
Previous observations
TIME
(EDT)
5-day plot - Wave Height
WVHT
ft
5-day plot - Swell Height
SwH
ft
5-day plot - Swell Period
SwP
sec
5-day plot - Swell Direction
SwD
 
5-day plot - Wind Wave Height
WWH
ft
5-day plot - Wind Wave Period
WWP
sec
5-day plot - Wind Wave Direction
WWD
 
5-day plot - Wave Steepness
STEEPNESS
 
5-day plot - Average Wave Period
APD
sec
2024-07-13 11:50 pm 0.3------ N/A-
2024-07-13 11:40 pm 0.3------ N/A-
2024-07-13 11:30 pm 0.3------ N/A-
2024-07-13 11:20 pm 0.3------ N/A-
2024-07-13 11:10 pm 0.3------ N/A-
2024-07-13 10:50 pm 0.3------ N/A-
2024-07-13 10:40 pm 0.3------ N/A-
2024-07-13 10:30 pm 0.3------ N/A-
2024-07-13 10:20 pm 0.3------ N/A-
2024-07-13 10:10 pm 0.3------ N/A-
2024-07-13 09:50 pm 0.3------ N/A-
2024-07-13 09:40 pm 0.3------ N/A-
2024-07-13 09:30 pm 0.3------ N/A-
2024-07-13 09:20 pm 0.3------ N/A-
2024-07-13 09:10 pm 0.3------ N/A-
2024-07-13 09:00 pm 0.7------ N/A-
2024-07-13 08:50 pm 0.7------ N/A-
2024-07-13 08:40 pm 0.7------ N/A-
2024-07-13 08:30 pm 0.7------ N/A-
2024-07-13 08:20 pm 0.7------ N/A-
2024-07-13 08:10 pm 0.7------ N/A-
2024-07-13 08:00 pm 0.7------ N/A-
2024-07-13 07:50 pm 0.7------ N/A-
2024-07-13 07:40 pm 0.7------ N/A-
2024-07-13 07:30 pm 0.7------ N/A-
2024-07-13 07:20 pm 0.7------ N/A-
2024-07-13 07:10 pm 1.0------ N/A-
2024-07-13 07:00 pm 1.0------ N/A-
2024-07-13 06:50 pm 1.0------ N/A-
2024-07-13 06:40 pm 1.0------ N/A-
2024-07-13 06:30 pm 1.0------ N/A-
2024-07-13 06:20 pm 1.0------ N/A-
2024-07-13 06:10 pm 1.0------ N/A-
2024-07-13 05:50 pm 1.0------ N/A-
2024-07-13 05:40 pm 1.0------ N/A-
2024-07-13 05:30 pm 1.3------ N/A-
2024-07-13 05:20 pm 1.0------ N/A-
2024-07-13 05:10 pm 1.3------ N/A-
2024-07-13 04:50 pm 1.3------ N/A-
2024-07-13 04:40 pm 1.0------ N/A-
2024-07-13 04:30 pm 1.3------ N/A-
2024-07-13 04:20 pm 1.3------ N/A-
2024-07-13 04:10 pm 1.0------ N/A-
2024-07-13 03:50 pm 1.3------ N/A-
2024-07-13 03:40 pm 1.3------ N/A-
2024-07-13 03:30 pm 1.3------ N/A-
2024-07-13 03:20 pm 1.3------ N/A-
2024-07-13 03:10 pm 1.3------ N/A-
2024-07-13 02:50 pm 1.3------ N/A-
2024-07-13 02:40 pm 1.3------ N/A-
2024-07-13 02:30 pm 1.3------ N/A-
2024-07-13 02:20 pm 1.3------ N/A-
2024-07-13 02:10 pm 1.3------ N/A-
2024-07-13 02:00 pm 1.0------ N/A-
2024-07-13 01:50 pm 1.0------ N/A-
2024-07-13 01:40 pm 1.0------ N/A-
2024-07-13 01:30 pm 1.0------ N/A-
2024-07-13 01:20 pm 1.0------ N/A-
2024-07-13 01:10 pm 0.7------ N/A-
2024-07-13 01:00 pm 0.7------ N/A-
2024-07-13 12:50 pm 0.7------ N/A-
2024-07-13 12:40 pm 0.7------ N/A-
2024-07-13 12:30 pm 0.3------ N/A-
2024-07-13 12:20 pm 0.3------ N/A-
2024-07-13 12:10 pm 0.3------ N/A-
2024-07-13 11:50 am 0.3------ N/A-
2024-07-13 11:40 am 0.3------ N/A-
2024-07-13 11:30 am 0.3------ N/A-
2024-07-13 11:20 am 0.3------ N/A-
2024-07-13 11:10 am 0.3------ N/A-
2024-07-13 11:00 am 0.3------ N/A-
2024-07-13 10:50 am 0.3------ N/A-
2024-07-13 10:30 am 0.3------ N/A-
2024-07-13 10:20 am 0.3------ N/A-
2024-07-13 10:10 am 0.3------ N/A-
2024-07-13 10:00 am 0.3------ N/A-
2024-07-13 09:50 am 0.3------ N/A-
2024-07-13 09:40 am 0.3------ N/A-
2024-07-13 09:30 am 0.3------ N/A-
2024-07-13 09:20 am 0.3------ N/A-
2024-07-13 09:10 am 0.3------ N/A-
2024-07-13 08:50 am 0.3------ N/A-
2024-07-13 08:40 am 0.3------ N/A-
2024-07-13 08:30 am 0.3------ N/A-
2024-07-13 08:20 am 0.3------ N/A-
2024-07-13 08:00 am 0.3------ N/A-
2024-07-13 07:50 am 0.3------ N/A-
2024-07-13 07:40 am 0.3------ N/A-
2024-07-13 07:30 am 0.3------ N/A-
2024-07-13 07:20 am 0.3------ N/A-
2024-07-13 07:10 am 0.3------ N/A-
2024-07-13 07:00 am 0.3------ N/A-
2024-07-13 06:50 am 0.3------ N/A-
2024-07-13 06:40 am 0.3------ N/A-
2024-07-13 06:30 am 0.3------ N/A-
2024-07-13 06:20 am 0.3------ N/A-
2024-07-13 06:10 am 0.3------ N/A-
2024-07-13 06:00 am 0.3------ N/A-
2024-07-13 05:50 am 0.3------ N/A-
2024-07-13 05:40 am 0.0------ N/A-
2024-07-13 05:30 am 0.3------ N/A-
2024-07-13 05:20 am 0.3------ N/A-
2024-07-13 05:10 am 0.0------ N/A-
2024-07-13 05:00 am 0.0------ N/A-
2024-07-13 04:50 am 0.3------ N/A-
2024-07-13 04:40 am 0.0------ N/A-
2024-07-13 04:30 am 0.0------ N/A-
2024-07-13 04:20 am 0.0------ N/A-
2024-07-13 04:10 am 0.3------ N/A-
2024-07-13 04:00 am 0.3------ N/A-
2024-07-13 03:50 am 0.3------ N/A-
2024-07-13 03:40 am 0.3------ N/A-
2024-07-13 03:30 am 0.3------ N/A-
2024-07-13 03:20 am 0.3------ N/A-
2024-07-13 03:10 am 0.3------ N/A-
2024-07-13 03:00 am 0.3------ N/A-
2024-07-13 02:50 am 0.3------ N/A-
2024-07-13 02:40 am 0.3------ N/A-
2024-07-13 02:30 am 0.3------ N/A-
2024-07-13 02:20 am 0.3------ N/A-
2024-07-13 02:10 am 0.3------ N/A-
2024-07-13 02:00 am 0.3------ N/A-
2024-07-13 01:50 am 0.3------ N/A-
2024-07-13 01:40 am 0.3------ N/A-
2024-07-13 01:30 am 0.3------ N/A-
2024-07-13 01:20 am 0.3------ N/A-
2024-07-13 01:10 am 0.3------ N/A-
2024-07-13 01:00 am 0.3------ N/A-
2024-07-13 12:50 am 0.3------ N/A-
2024-07-13 12:40 am 0.3------ N/A-
2024-07-13 12:30 am 0.3------ N/A-
2024-07-13 12:20 am 0.3------ N/A-
2024-07-13 12:10 am 0.3------ N/A-
2024-07-13 12:00 am 0.3------ N/A-
2024-07-12 11:50 pm 0.3------ N/A-